Dewpoint
30 28 25 25 25 24 22 19 19 21 20 19 20 21 19 20 19 21 24 28 29 28 30 30 58 65 69 70 71 72 71 73 72 70 68 67 66 67 67 67 69 69 67 66
28 27 27 27 26 26 25 24 22 23 23 23 22 19 17 21 24 26 26 27 30 31 31 34 61 66 69 71 71 71 71 72 71 68 68 66 65 66 66 67 69 69 69 71
28 27 28 28 27 26 26 25 24 22 23 24 23 21 22 19 17 22 26 28 31 31 32 43 61 67 69 70 71 71 71 71 71 71 69 69 69 69 68 70 71 72 71 71
28 29 29 29 27 26 26 26 26 25 25 23 23 18 20 18 18 17 21 26 28 32 33 46 62 67 69 69 70 71 71 72 71 71 69 71 65 66 69 67 68 69 68 68
31 28 28 28 28 28 28 30 30 31 28 26 23 18 18 17 14 12 16 22 27 30 32 42 62 67 67 68 68 70 71 71 71 70 70 69 68 67 66 65 66 67 68 68
31 31 31 30 30 30 32 34 34 32 30 29 24 20 16 13 15 14 17 16 26 28 30 39 61 66 67 67 68 69 70 70 71 70 72 69 67 65 65 65 66 66 65 65
28 27 30 32 31 32 33 37 30 29 28 21 18 17 19 17 14 17 17 18 23 29 30 39 60 64 66 67 68 69 69 70 70 71 70 69 69 68 67 66 64 62 62 63
29 22 28 31 32 30 34 32 28 24 20 14 17 15 14 19 18 21 19 21 22 28 30 40 59 63 64 67 68 68 69 69 69 69 70 70 69 67 66 65 63 62 62 61
34 28 30 31 33 35 36 33 33 31 25 20 14 17 19 20 18 19 26 24 24 32 33 49 59 63 65 67 68 67 68 69 68 70 70 70 70 68 66 66 64 61 60 59
36 32 30 28 35 36 37 37 33 33 22 20 13 13 9 17 19 19 26 31 30 33 37 53 60 64 66 66 67 69 69 69 69 69 69 67 65 65 64 63 62 62 62 59
38 32 28 33 34 32 36 35 35 30 24 24 14 10 19 16 20 21 25 31 32 31 46 56 64 64 64 66 66 68 68 68 68 67 64 63 64 63 63 62 62 61 58 57
37 34 32 29 30 31 30 31 32 31 26 24 23 26 32 17 21 24 29 29 30 34 53 62 62 62 64 65 65 66 66 66 64 62 62 63 62 62 61 59 59 58 56 55
36 34 30 31 32 33 32 31 34 33 34 30 28 27 34 33 39 26 31 29 31 49 60 60 60 61 61 62 62 62 62 61 60 60 60 61 61 60 59 58 57 55 54 53
41 36 33 29 29 36 31 28 28 31 30 28 27 30 30 35 41 30 33 31 43 58 58 58 58 59 59 59 59 58 58 58 58 58 57 57 57 56 55 55 55 53 53 51
38 34 36 36 36 34 35 28 31 29 28 30 31 36 34 36 39 35 35 53 55 55 56 56 57 57 56 56 56 55 57 58 57 56 54 54 54 53 53 53 53 52 51 49
39 34 35 35 33 29 28 25 29 31 34 34 35 37 40 43 44 40 54 53 52 53 54 55 56 55 55 54 54 54 55 55 56 55 53 52 52 52 52 52 51 51 50 50
35 36 35 34 33 30 32 35 36 37 39 35 36 37 43 46 51 54 53 52 51 53 53 54 55 55 55 54 55 54 54 53 52 52 53 52 52 51 50 49 49 50 51 50
34 35 37 34 34 29 36 37 37 34 38 37 41 41 46 50 51 52 53 52 51 52 53 53 54 55 56 56 56 56 55 54 53 52 51 50 49 49 49 49 49 49 48 48
34 35 36 34 33 34 34 35 33 32 32 39 38 45 46 47 46 46 50 51 51 51 53 54 55 56 57 55 54 54 53 52 50 49 48 48 48 49 49 48 49 48 47 46
33 35 35 31 28 29 34 34 35 36 36 38 39 46 46 47 40 43 48 49 50 51 52 53 53 53 54 53 52 51 49 48 48 47 48 49 49 49 49 48 48 48 47 45
32 31 31 30 30 35 34 34 38 33 31 38 44 46 47 44 44 45 47 47 49 50 51 52 52 52 52 51 50 49 49 48 48 48 48 49 49 49 49 49 48 48 47 46
29 28 29 29 29 30 36 33 31 36 38 41 43 43 42 42 43 44 45 46 47 48 48 49 49 49 50 49 48 48 48 48 48 47 49 50 50 48 47 48 47 45 45 44
31 32 28 30 31 36 36 35 37 42 38 41 41 41 41 41 42 43 44 46 45 46 46 46 47 47 47 47 47 46 46 46 46 46 48 48 48 47 47 46 44 40 42 39
34 33 31 33 34 34 35 36 39 42 40 40 42 41 40 40 40 42 43 44 44 44 44 44 45 45 45 45 45 45 45 45 45 46 46 45 44 42 42 39 39 38 37 36
34 34 32 33 35 32 34 35 39 40 41 41 41 41 39 39 38 39 40 42 43 42 42 43 43 44 44 44 44 44 44 44 44 44 43 42 41 41 40 38 37 35 35 35
35 32 31 32 33 32 32 34 40 39 40 42 40 39 40 39 38 38 39 40 40 41 40 40 41 41 42 42 42 43 43 44 44 42 40 39 39 37 35 34 31 35 35 35
Lifted_Index
3 3 2 2 2 2 2 2 1 1 1 1 2 3 5 6 7 7 7 6 6 6 6 4 -2 -7 -8 -8 -8 -7 -7 -6 -5 -4 -4 -4 -4 -4 -3 -3 -3 -2 -2 -2
3 2 2 2 2 2 2 1 1 1 1 1 1 3 5 6 7 7 7 6 6 6 6 3 -3 -7 -8 -8 -8 -7 -7 -6 -5 -4 -4 -4 -4 -4 -3 -3 -3 -2 -2 -2
3 2 2 2 2 2 1 1 1 1 1 1 1 2 3 6 7 7 7 6 6 6 5 1 -4 -8 -9 -9 -8 -8 -7 -6 -5 -5 -4 -4 -4 -4 -3 -3 -2 -2 -2 -3
3 3 3 2 2 1 1 1 1 1 1 1 1 1 2 5 7 7 7 7 6 6 4 0 -5 -8 -9 -9 -9 -8 -7 -6 -6 -5 -5 -4 -4 -3 -3 -2 -2 -2 -2 -2
3 3 3 2 1 1 1 1 1 1 1 1 1 1 1 3 6 7 7 7 6 5 4 0 -5 -9 -9 -9 -8 -8 -7 -6 -6 -5 -5 -4 -3 -2 -2 -2 -2 -2 -2 -2
3 3 2 2 1 1 1 1 1 0 1 1 1 0 1 3 5 7 7 6 6 5 4 0 -5 -9 -9 -9 -8 -8 -7 -6 -6 -6 -5 -4 -3 -2 -2 -2 -2 -2 -2 -1
2 2 2 2 1 1 1 1 0 0 0 0 0 0 1 3 5 6 6 6 5 5 4 0 -5 -8 -9 -9 -8 -7 -7 -7 -7 -6 -5 -4 -3 -2 -2 -2 -1 -1 -1 -1
2 2 2 1 1 1 1 1 0 -0 -0 0 -0 0 1 3 4 5 5 5 5 4 3 -1 -6 -8 -9 -8 -8 -7 -7 -7 -6 -6 -5 -4 -3 -3 -2 -1 -1 -1 -0 -0
3 2 2 1 1 1 1 0 0 -0 -0 -0 -0 -0 1 2 3 5 5 4 4 3 2 -2 -6 -8 -8 -8 -8 -7 -7 -7 -6 -6 -5 -5 -4 -3 -2 -1 -0 0 1 1
3 3 2 2 1 1 1 0 -0 -0 -0 -1 -1 -0 0 1 3 5 5 4 3 2 -0 -4 -7 -8 -8 -8 -8 -7 -7 -6 -6 -5 -5 -4 -3 -2 -1 0 1 1 1 1
3 3 2 1 1 0 0 0 -0 -0 -0 -1 -1 -1 -0 1 3 5 5 4 3 1 -2 -6 -7 -7 -7 -7 -7 -7 -6 -6 -5 -5 -4 -3 -2 -0 0 1 1 2 1 1
3 3 2 1 1 0 -0 -0 -1 -1 -0 -0 -0 -0 -0 1 3 4 4 3 2 -0 -4 -6 -7 -6 -6 -6 -6 -6 -5 -5 -5 -4 -3 -2 -0 1 1 1 1 1 2 2
3 3 1 1 0 -0 -0 -1 -1 -0 -0 0 0 0 -0 -0 1 2 2 1 -0 -3 -5 -6 -6 -6 -6 -5 -5 -5 -5 -4 -4 -4 -2 -1 1 1 1 1 1 2 4 5
3 2 1 0 -0 -0 -0 -0 -0 -0 0 0 1 1 0 -1 -1 0 0 -1 -2 -4 -5 -5 -5 -5 -5 -5 -5 -4 -4 -4 -4 -3 -2 -0 0 1 1 1 3 5 7 8
3 2 1 0 -0 -0 -0 -0 -0 0 0 1 1 0 -0 -1 -1 -1 -2 -3 -4 -4 -4 -4 -4 -4 -4 -5 -5 -5 -4 -4 -3 -2 -1 -0 0 0 1 3 5 8 9 10
2 1 1 0 -0 -0 -0 -0 0 0 1 1 1 -0 -1 -1 -2 -2 -4 -4 -3 -3 -2 -2 -3 -4 -4 -5 -5 -5 -4 -3 -2 -2 -1 -0 0 1 3 5 8 9 10 11
2 1 1 0 -0 -0 0 1 1 1 1 1 0 -1 -1 -2 -3 -3 -4 -3 -2 -2 -2 -2 -3 -4 -5 -5 -5 -4 -3 -3 -2 -2 -1 0 1 3 6 8 10 10 11 11
2 2 1 1 -0 -0 1 1 2 2 1 1 -0 -1 -1 -2 -3 -3 -3 -2 -2 -1 -2 -3 -4 -5 -5 -4 -4 -3 -2 -2 -1 -1 1 2 4 6 8 10 10 11 11 11
2 2 1 1 0 0 1 2 2 2 2 1 -0 -1 -2 -2 -2 -2 -2 -2 -2 -2 -3 -3 -4 -4 -4 -3 -2 -1 -1 -0 0 2 3 5 7 8 9 10 11 11 11 11
3 2 2 2 1 1 1 2 3 2 2 1 0 -1 -2 -2 -2 -2 -2 -2 -2 -3 -3 -4 -4 -3 -2 -1 0 0 1 2 3 5 6 7 8 9 9 10 10 11 11 11
2 2 2 2 2 2 2 2 3 3 3 2 1 -1 -1 -1 -1 -1 -2 -2 -3 -3 -3 -3 -2 -1 0 2 2 2 3 4 6 7 7 8 8 9 9 10 10 11 11 11
2 2 3 3 3 3 3 4 4 4 4 4 2 0 -1 -1 -1 -2 -2 -2 -3 -3 -2 -1 0 1 3 4 4 4 5 7 8 8 8 8 9 9 10 10 11 11 11 11
3 3 3 3 3 4 5 5 5 6 5 5 4 1 -0 -1 -1 -1 -1 -2 -2 -1 1 2 3 4 5 6 6 6 7 9 9 9 9 9 10 10 11 11 11 12 12 12
5 5 4 4 4 5 6 7 7 7 6 6 5 3 1 -0 0 0 0 0 1 2 4 5 5 6 7 8 8 8 9 10 10 10 10 11 11 11 11 12 12 12 13 13
6 5 4 4 4 5 6 7 8 8 7 7 7 5 3 2 2 2 2 3 4 5 7 7 8 8 8 9 9 9 10 10 11 11 11 12 12 12 12 12 13 13 14 14
6 5 3 3 5 5 6 8 9 9 8 8 7 6 4 3 3 3 3 4 5 6 8 8 8 8 8 9 10 10 11 11 11 12 12 12 12 12 12 13 13 14 15 15